﻿_id,日時,平均風速(m/s),平均風向,最大瞬間風速(m/s),最大風速時風向,気温(℃),湿度(%),10分間移動積算雨量(mm),1時間移動積算雨量(mm),日雨量(mm),累計雨量(mm)
1,2024-04-22T00:00:00,1,東,2,東南東,15.8,96.2,0,0,6.5,6.5
2,2024-04-22T00:01:00,1.1,東,2.2,東南東,15.8,96.2,0,0,0,6.5
3,2024-04-22T00:02:00,1.2,東,2.2,東南東,15.8,96.2,0,0,0,6.5
4,2024-04-22T00:03:00,1.3,東,2.2,東南東,15.8,96.3,0,0,0,6.5
5,2024-04-22T00:04:00,1.3,東,2.2,東南東,15.8,96.2,0,0,0,6.5
6,2024-04-22T00:05:00,1.3,東,2.2,東南東,15.8,96.1,0,0,0,6.5
7,2024-04-22T00:06:00,1.3,東,2.2,東南東,15.8,96.1,0,0,0,6.5
8,2024-04-22T00:07:00,1.3,東,2.3,南東,15.8,96.2,0,0,0,6.5
9,2024-04-22T00:08:00,1.3,東南東,2.3,南東,15.8,96.2,0,0,0,6.5
10,2024-04-22T00:09:00,1.3,東南東,2.3,南東,15.8,96.2,0,0,0,6.5
11,2024-04-22T00:10:00,1.4,東南東,2.3,南東,15.8,96.3,0,0,0,6.5
12,2024-04-22T00:11:00,1.4,東南東,2.3,南東,15.8,96.4,0,0,0,6.5
13,2024-04-22T00:12:00,1.4,東南東,2.3,南東,15.8,96.4,0,0,0,6.5
14,2024-04-22T00:13:00,1.4,東南東,2.3,南東,15.8,96.4,0,0,0,6.5
15,2024-04-22T00:14:00,1.4,東南東,2.3,南東,15.8,96.4,0,0,0,6.5
16,2024-04-22T00:15:00,1.4,東南東,2.3,南東,15.8,96.3,0,0,0,6.5
17,2024-04-22T00:16:00,1.4,東南東,2.3,南東,15.8,96.3,0,0,0,6.5
18,2024-04-22T00:17:00,1.4,東,2.3,東南東,15.8,96.2,0,0,0,6.5
19,2024-04-22T00:18:00,1.4,東,2.3,東南東,15.8,96.2,0,0,0,6.5
20,2024-04-22T00:19:00,1.4,東,2.3,東南東,15.8,96.2,0,0,0,6.5
21,2024-04-22T00:20:00,1.4,東,2.4,東北東,15.8,96.2,0,0,0,6.5
22,2024-04-22T00:21:00,1.4,東,2.4,東北東,15.8,96.2,0,0,0,6.5
23,2024-04-22T00:22:00,1.4,東,2.4,東北東,15.8,96.2,0,0,0,6.5
24,2024-04-22T00:23:00,1.4,東北東,2.7,北東,15.8,96.2,0,0,0,6.5
25,2024-04-22T00:24:00,1.4,東北東,2.7,北東,15.8,96.1,0,0,0,6.5
26,2024-04-22T00:25:00,1.4,東北東,2.7,北東,15.8,96.1,0,0,0,6.5
27,2024-04-22T00:26:00,1.4,東北東,2.7,北東,15.8,96.1,0,0,0,6.5
28,2024-04-22T00:27:00,1.4,東北東,2.7,北東,15.8,96.2,0,0,0,6.5
29,2024-04-22T00:28:00,1.5,東北東,2.7,北東,15.8,96.1,0,0,0,6.5
30,2024-04-22T00:29:00,1.5,東北東,2.7,北東,15.8,96.1,0,0,0,6.5
31,2024-04-22T00:30:00,1.6,東北東,2.8,東,15.8,96.2,0,0,0,6.5
32,2024-04-22T00:31:00,1.6,東北東,2.8,東,15.8,96.2,0,0,0,6.5
33,2024-04-22T00:32:00,1.5,東,2.8,東,15.8,96.3,0,0,0,6.5
34,2024-04-22T00:33:00,1.5,東,2.8,東,15.7,96.3,0,0,0,6.5
35,2024-04-22T00:34:00,1.5,東,2.8,東,15.8,96.4,0,0,0,6.5
36,2024-04-22T00:35:00,1.4,東南東,2.8,東,15.8,96.5,0,0,0,6.5
37,2024-04-22T00:36:00,1.3,東南東,2.8,東,15.9,96.7,0,0,0,6.5
38,2024-04-22T00:37:00,1.2,東南東,2.8,東,15.8,96.6,0,0,0,6.5
39,2024-04-22T00:38:00,1.1,南東,2.8,東,15.8,96.5,0,0,0,6.5
40,2024-04-22T00:39:00,1.1,南東,2.8,東,15.8,96.4,0,0,0,6.5
41,2024-04-22T00:40:00,1.1,南東,2.5,東,15.8,96.4,0,0,0,6.5
42,2024-04-22T00:41:00,1,南東,2.5,東,15.7,96.3,0,0,0,6.5
43,2024-04-22T00:42:00,1,南東,2.8,南東,15.8,96.3,0,0,0,6.5
44,2024-04-22T00:43:00,1.1,南東,2.8,南東,15.7,96.2,0,0,0,6.5
45,2024-04-22T00:44:00,1.1,南東,2.8,南東,15.7,96.3,0,0,0,6.5
46,2024-04-22T00:45:00,1,南東,2.8,南東,15.8,96.3,0,0,0,6.5
47,2024-04-22T00:46:00,1.1,南東,2.8,南東,15.8,96.4,0,0,0,6.5
48,2024-04-22T00:47:00,1.1,南東,2.8,南東,15.9,96.5,0,0,0,6.5
49,2024-04-22T00:48:00,1.1,南東,2.8,南東,15.9,96.5,0,0,0,6.5
50,2024-04-22T00:49:00,1.1,南東,2.8,南東,15.8,96.3,0,0,0,6.5
51,2024-04-22T00:50:00,1.1,南東,2.9,東,15.8,96.2,0,0,0,6.5
52,2024-04-22T00:51:00,1.1,東南東,2.9,東,15.8,96.1,0,0,0,6.5
53,2024-04-22T00:52:00,1,東南東,2.9,東,15.8,96,0,0,0,6.5
54,2024-04-22T00:53:00,0.9,東南東,2.9,東,15.8,96,0,0,0,6.5
55,2024-04-22T00:54:00,0.9,東南東,2.9,東,15.8,96.1,0,0,0,6.5
56,2024-04-22T00:55:00,1,東南東,2.9,東,15.8,96.1,0,0,0,6.5
57,2024-04-22T00:56:00,0.9,東南東,2.9,東,15.8,96.1,0,0,0,6.5
58,2024-04-22T00:57:00,0.9,東南東,2.9,東,15.8,96.2,0,0,0,6.5
59,2024-04-22T00:58:00,0.9,東南東,2.9,東,15.8,96.2,0,0,0,6.5
60,2024-04-22T00:59:00,0.9,東南東,2.9,東,15.8,96.2,0,0,0,6.5
61,2024-04-22T01:00:00,0.8,東南東,1.6,東,15.7,96.2,0,0,0,6.5
62,2024-04-22T01:01:00,0.8,東南東,1.6,東,15.8,96.1,0,0,0,6.5
63,2024-04-22T01:02:00,0.8,東南東,1.6,東,15.8,96.1,0,0,0,6.5
64,2024-04-22T01:03:00,0.8,東南東,1.6,東,15.8,96.1,0,0,0,6.5
65,2024-04-22T01:04:00,0.8,東,1.6,東,15.8,96.1,0,0,0,6.5
66,2024-04-22T01:05:00,0.8,東,1.6,東,15.8,96.2,0,0,0,6.5
67,2024-04-22T01:06:00,0.8,東,1.6,東,15.8,96.2,0,0,0,6.5
68,2024-04-22T01:07:00,0.9,東,1.6,東,15.8,96.2,0,0,0,6.5
69,2024-04-22T01:08:00,0.9,東,1.6,東,15.8,96.2,0,0,0,6.5
70,2024-04-22T01:09:00,0.9,東,1.6,東,15.7,96.2,0,0,0,6.5
71,2024-04-22T01:10:00,1,東,1.6,東,15.8,96.1,0,0,0,6.5
72,2024-04-22T01:11:00,1,東,2.1,東,15.7,96.1,0,0,0,6.5
73,2024-04-22T01:12:00,1,東,2.2,東,15.7,96,0,0,0,6.5
74,2024-04-22T01:13:00,,"",,"",,,,,,
75,2024-04-22T01:14:00,1.2,東,2.4,東,15.7,96,0,0,0,6.5
76,2024-04-22T01:15:00,1.3,東,2.4,東,15.7,96,0,0,0,6.5
77,2024-04-22T01:16:00,1.3,東,2.4,東,15.7,96.1,0,0,0,6.5
78,2024-04-22T01:17:00,1.4,東,2.4,東,15.7,96.2,0,0,0,6.5
79,2024-04-22T01:18:00,1.4,東,2.4,東,15.7,96.2,0,0,0,6.5
80,2024-04-22T01:19:00,1.5,東,2.4,東,15.7,96.1,0,0,0,6.5
81,2024-04-22T01:20:00,1.5,東,2.4,東,15.7,96.2,0,0,0,6.5
82,2024-04-22T01:21:00,1.4,東,2.4,東,15.8,96.2,0,0,0,6.5
83,2024-04-22T01:22:00,1.4,東南東,2.4,東,15.8,96.3,0,0,0,6.5
84,2024-04-22T01:23:00,1.3,東南東,2.3,東南東,15.7,96.1,0,0,0,6.5
85,2024-04-22T01:24:00,1.3,東南東,2.4,東南東,15.7,96,0,0,0,6.5
86,2024-04-22T01:25:00,1.3,東南東,2.4,東南東,15.7,96.1,0,0,0,6.5
87,2024-04-22T01:26:00,1.3,東南東,2.4,東南東,15.7,96.2,0,0,0,6.5
88,2024-04-22T01:27:00,1.3,東南東,2.4,東南東,15.7,96.3,0,0,0,6.5
89,2024-04-22T01:28:00,1.3,東南東,2.4,東南東,15.7,96.2,0,0,0,6.5
90,2024-04-22T01:29:00,1.3,東南東,2.5,東,15.6,96.3,0,0,0,6.5
91,2024-04-22T01:30:00,1.3,東南東,2.5,東,15.6,96.2,0,0,0,6.5
92,2024-04-22T01:31:00,1.4,東南東,2.5,東,15.6,96.2,0,0,0,6.5
93,2024-04-22T01:32:00,1.4,東南東,2.5,東,15.6,96.2,0,0,0,6.5
94,2024-04-22T01:33:00,1.4,東南東,2.5,東,15.6,96.2,0,0,0,6.5
95,2024-04-22T01:34:00,1.4,東南東,2.5,東,15.6,96.2,0,0,0,6.5
96,2024-04-22T01:35:00,1.5,東,2.9,東南東,15.6,96.1,0,0,0,6.5
97,2024-04-22T01:36:00,1.5,東,2.9,東南東,15.6,95.9,0,0,0,6.5
98,2024-04-22T01:37:00,1.6,東,2.9,東南東,15.6,95.9,0,0,0,6.5
99,2024-04-22T01:38:00,1.5,東,2.9,東南東,15.6,95.8,0,0,0,6.5
100,2024-04-22T01:39:00,1.5,東,2.9,東南東,15.6,95.9,0,0,0,6.5
101,2024-04-22T01:40:00,1.5,東,2.9,東南東,15.6,95.9,0,0,0,6.5
102,2024-04-22T01:41:00,1.6,東,2.9,東南東,15.6,95.9,0,0,0,6.5
103,2024-04-22T01:42:00,1.6,東,2.9,東南東,15.6,95.8,0,0,0,6.5
104,2024-04-22T01:43:00,1.7,東,2.9,東南東,15.6,95.7,0,0,0,6.5
105,2024-04-22T01:44:00,1.7,東,2.9,東南東,15.6,95.7,0,0,0,6.5
106,2024-04-22T01:45:00,1.6,東,2.4,東南東,15.6,95.7,0,0,0,6.5
107,2024-04-22T01:46:00,1.7,東,3.4,東,15.6,95.7,0,0,0,6.5
108,2024-04-22T01:47:00,1.7,東,3.4,東,15.6,95.6,0,0,0,6.5
109,2024-04-22T01:48:00,1.7,東,3.4,東,15.6,95.6,0,0,0,6.5
110,2024-04-22T01:49:00,1.7,東,3.4,東,15.6,95.6,0,0,0,6.5
111,2024-04-22T01:50:00,1.7,東,3.4,東,15.6,95.5,0,0,0,6.5
112,2024-04-22T01:51:00,1.7,東,3.4,東,15.6,95.5,0,0,0,6.5
113,2024-04-22T01:52:00,1.7,東,3.4,東,15.6,95.5,0,0,0,6.5
114,2024-04-22T01:53:00,1.7,東,3.4,東,15.6,95.4,0,0,0,6.5
115,2024-04-22T01:54:00,1.7,東,3.4,東,15.6,95.5,0,0,0,6.5
116,2024-04-22T01:55:00,1.7,東,3.4,東,15.6,95.4,0,0,0,6.5
117,2024-04-22T01:56:00,1.5,東,3,東南東,15.6,95.3,0,0,0,6.5
118,2024-04-22T01:57:00,1.5,東,3,東南東,15.6,95.3,0,0,0,6.5
119,2024-04-22T01:58:00,1.6,東,3,東南東,15.6,95.3,0,0,0,6.5
120,2024-04-22T01:59:00,1.6,東,3,東南東,15.6,95.3,0,0,0,6.5
121,2024-04-22T02:00:00,1.5,東,3,東南東,15.6,95.2,0,0,0,6.5
122,2024-04-22T02:01:00,1.5,東,3,東南東,15.6,95.2,0,0,0,6.5
123,2024-04-22T02:02:00,1.5,東,3,東南東,15.6,95.2,0,0,0,6.5
124,2024-04-22T02:03:00,1.5,東,3,東南東,15.6,95.2,0,0,0,6.5
125,2024-04-22T02:04:00,1.4,東,2.8,東,15.6,95.3,0,0,0,6.5
126,2024-04-22T02:05:00,1.4,東,2.9,東南東,15.6,95.4,0,0,0,6.5
127,2024-04-22T02:06:00,1.5,東,2.9,東南東,15.6,95.3,0,0,0,6.5
128,2024-04-22T02:07:00,1.5,東,2.9,東南東,15.5,95.2,0,0,0,6.5
129,2024-04-22T02:08:00,1.4,東,2.9,東南東,15.6,95.3,0,0,0,6.5
130,2024-04-22T02:09:00,1.3,東,2.9,東南東,15.5,95.3,0,0,0,6.5
131,2024-04-22T02:10:00,1.4,東,2.9,東南東,15.6,95.4,0,0,0,6.5
132,2024-04-22T02:11:00,1.5,東,2.9,東南東,15.5,95.4,0,0,0,6.5
133,2024-04-22T02:12:00,1.5,東,3.2,東南東,15.5,95.3,0,0,0,6.5
134,2024-04-22T02:13:00,1.6,東,3.2,東南東,15.5,95.3,0,0,0,6.5
135,2024-04-22T02:14:00,1.7,東,3.2,東南東,15.5,95.3,0,0,0,6.5
136,2024-04-22T02:15:00,1.6,東,3.2,東南東,15.5,95.3,0,0,0,6.5
137,2024-04-22T02:16:00,1.5,東,3.2,東南東,15.5,95.3,0,0,0,6.5
138,2024-04-22T02:17:00,1.5,東,3.2,東南東,15.5,95.4,0,0,0,6.5
139,2024-04-22T02:18:00,1.6,東,3.2,東南東,15.5,95.3,0,0,0,6.5
140,2024-04-22T02:19:00,1.6,東,3.2,東南東,15.5,95.3,0,0,0,6.5
141,2024-04-22T02:20:00,1.6,東,3.2,東南東,15.5,95.4,0,0,0,6.5
142,2024-04-22T02:21:00,1.5,東,3.2,東南東,15.5,95.4,0,0,0,6.5
143,2024-04-22T02:22:00,1.4,東,2.6,東,15.5,95.4,0,0,0,6.5
144,2024-04-22T02:23:00,1.3,東,2.6,東,15.5,95.4,0,0,0,6.5
145,2024-04-22T02:24:00,1.2,東,2.6,東,15.5,95.5,0,0,0,6.5
146,2024-04-22T02:25:00,1.2,東,2.6,東,15.5,95.5,0,0,0,6.5
147,2024-04-22T02:26:00,1.2,東,2.6,東,15.5,95.5,0,0,0,6.5
148,2024-04-22T02:27:00,1.3,東,2.6,東,15.5,95.6,0,0,0,6.5
149,2024-04-22T02:28:00,1.3,東,2.5,東南東,15.5,95.5,0,0,0,6.5
150,2024-04-22T02:29:00,1.3,東,2.5,東南東,15.5,95.4,0,0,0,6.5
151,2024-04-22T02:30:00,1.3,東,2.5,東南東,15.5,95.4,0,0,0,6.5
152,2024-04-22T02:31:00,1.3,東,2.5,東南東,15.5,95.4,0,0,0,6.5
153,2024-04-22T02:32:00,1.3,東,2.5,東南東,15.5,95.4,0,0,0,6.5
154,2024-04-22T02:33:00,1.4,東,2.5,東南東,15.5,95.5,0,0,0,6.5
155,2024-04-22T02:34:00,1.4,東,2.5,東南東,15.5,95.5,0,0,0,6.5
156,2024-04-22T02:35:00,1.4,東,2.5,東南東,15.5,95.4,0,0,0,6.5
157,2024-04-22T02:36:00,1.4,東,2.5,東南東,15.5,95.4,0,0,0,6.5
158,2024-04-22T02:37:00,1.3,東北東,2.5,東南東,15.5,95.4,0,0,0,6.5
159,2024-04-22T02:38:00,1.3,東北東,2.3,東北東,15.5,95.4,0,0,0,6.5
160,2024-04-22T02:39:00,1.3,東北東,2.3,東北東,15.5,95.5,0,0,0,6.5
161,2024-04-22T02:40:00,1.2,東北東,2.3,東北東,15.5,95.6,0,0,0,6.5
162,2024-04-22T02:41:00,1.1,東北東,2.3,東北東,15.5,95.6,0,0,0,6.5
163,2024-04-22T02:42:00,1.1,東北東,2.2,東北東,15.4,95.6,0,0,0,6.5
164,2024-04-22T02:43:00,1,東北東,2.2,東北東,15.5,95.7,0,0,0,6.5
165,2024-04-22T02:44:00,1,東,1.6,東北東,15.5,95.8,0,0,0,6.5
166,2024-04-22T02:45:00,1,東,1.9,東南東,15.5,95.8,0,0,0,6.5
167,2024-04-22T02:46:00,1,東,1.9,東南東,15.5,95.8,0,0,0,6.5
168,2024-04-22T02:47:00,1,東,1.9,東南東,15.5,95.8,0,0,0,6.5
169,2024-04-22T02:48:00,0.9,東,1.9,東南東,15.5,95.9,0,0,0,6.5
170,2024-04-22T02:49:00,0.9,東,1.9,東南東,15.5,95.9,0,0,0,6.5
171,2024-04-22T02:50:00,1,東,1.9,東南東,15.5,95.8,0,0,0,6.5
172,2024-04-22T02:51:00,1,東,1.9,東南東,15.5,95.7,0,0,0,6.5
173,2024-04-22T02:52:00,1,東,1.9,東南東,15.5,95.7,0,0,0,6.5
174,2024-04-22T02:53:00,1.1,東,1.9,東南東,15.5,95.6,0,0,0,6.5
175,2024-04-22T02:54:00,1.1,東,1.9,東南東,15.5,95.6,0,0,0,6.5
176,2024-04-22T02:55:00,1,東,1.7,東,15.5,95.6,0,0,0,6.5
177,2024-04-22T02:56:00,1,東,1.7,東,15.5,95.6,0,0,0,6.5
178,2024-04-22T02:57:00,1,東,1.7,東,15.5,95.6,0,0,0,6.5
179,2024-04-22T02:58:00,1,東,1.7,東,15.5,95.6,0,0,0,6.5
180,2024-04-22T02:59:00,1,東,1.7,東,15.5,95.7,0,0,0,6.5
181,2024-04-22T03:00:00,1.1,東,1.7,東,15.5,95.7,0,0,0,6.5
182,2024-04-22T03:01:00,1.1,東,1.6,東,15.5,95.7,0,0,0,6.5
183,2024-04-22T03:02:00,1,東,1.6,東,15.5,95.7,0,0,0,6.5
184,2024-04-22T03:03:00,1,東,1.6,東,15.5,95.6,0,0,0,6.5
185,2024-04-22T03:04:00,1.1,東,1.8,東北東,15.5,95.6,0,0,0,6.5
186,2024-04-22T03:05:00,1.1,東,1.8,東北東,15.4,95.4,0,0,0,6.5
187,2024-04-22T03:06:00,1.1,東,2,東北東,15.5,95.3,0,0,0,6.5
188,2024-04-22T03:07:00,1.1,東,2,東北東,15.5,95.3,0,0,0,6.5
189,2024-04-22T03:08:00,1.1,東,2,東北東,15.5,95.4,0,0,0,6.5
190,2024-04-22T03:09:00,1.2,東北東,2,東北東,15.4,95.4,0,0,0,6.5
191,2024-04-22T03:10:00,1.1,東北東,2,東北東,15.4,95.5,0,0,0,6.5
192,2024-04-22T03:11:00,1.1,東北東,2,東北東,15.4,95.6,0,0,0,6.5
193,2024-04-22T03:12:00,1.1,東北東,2,東北東,15.4,95.5,0,0,0,6.5
194,2024-04-22T03:13:00,1.1,東北東,2,東北東,15.5,95.3,0,0,0,6.5
195,2024-04-22T03:14:00,1,東北東,2,東北東,15.5,95.4,0,0,0,6.5
196,2024-04-22T03:15:00,1.1,東北東,2,東北東,15.5,95.5,0,0,0,6.5
197,2024-04-22T03:16:00,1,東北東,1.8,東,15.5,95.4,0,0,0,6.5
198,2024-04-22T03:17:00,1.1,東北東,3,東北東,15.5,95.4,0,0,0,6.5
199,2024-04-22T03:18:00,1.2,東北東,3,東北東,15.4,95.3,0,0,0,6.5
200,2024-04-22T03:19:00,1.2,東,3,東北東,15.4,95.3,0,0,0,6.5
201,2024-04-22T03:20:00,1.3,東,3,東北東,15.4,95.3,0,0,0,6.5
202,2024-04-22T03:21:00,1.4,東,3.3,東北東,15.4,95.4,0,0,0,6.5
203,2024-04-22T03:22:00,1.5,東,3.3,東北東,15.4,95.4,0,0,0,6.5
204,2024-04-22T03:23:00,1.7,東北東,3.3,東北東,15.4,95.4,0,0,0,6.5
205,2024-04-22T03:24:00,1.7,東北東,3.3,東北東,15.4,95.4,0,0,0,6.5
206,2024-04-22T03:25:00,1.7,東北東,3.3,東北東,15.4,95.4,0,0,0,6.5
207,2024-04-22T03:26:00,1.7,東北東,3.3,東北東,15.4,95.4,0,0,0,6.5
208,2024-04-22T03:27:00,1.6,東,3.3,東北東,15.4,95.5,0,0,0,6.5
209,2024-04-22T03:28:00,1.6,東,3.3,東北東,15.4,95.5,0,0,0,6.5
210,2024-04-22T03:29:00,1.6,東,3.3,東北東,15.4,95.5,0,0,0,6.5
211,2024-04-22T03:30:00,1.5,東,3.3,東北東,15.4,95.5,0,0,0,6.5
212,2024-04-22T03:31:00,1.4,東南東,3.1,東北東,15.4,95.7,0,0,0,6.5
213,2024-04-22T03:32:00,1.3,東南東,3.1,東北東,15.4,95.7,0,0,0,6.5
214,2024-04-22T03:33:00,1.2,東南東,2.5,南南東,15.4,95.7,0,0,0,6.5
215,2024-04-22T03:34:00,1.2,東南東,2.5,南南東,15.4,95.6,0,0,0,6.5
216,2024-04-22T03:35:00,1.3,東南東,3.9,東,15.4,95.5,0,0,0,6.5
217,2024-04-22T03:36:00,1.4,南東,3.9,東,15.4,95.2,0,0,0,6.5
218,2024-04-22T03:37:00,1.5,南東,3.9,東,15.4,95.2,0,0,0,6.5
219,2024-04-22T03:38:00,1.6,南東,3.9,東,15.4,95.2,0,0,0,6.5
220,2024-04-22T03:39:00,1.7,東南東,3.9,東,15.4,95.2,0,0,0,6.5
221,2024-04-22T03:40:00,1.8,東南東,3.9,東,15.4,95.2,0,0,0,6.5
222,2024-04-22T03:41:00,2,東南東,3.9,東,15.4,95.1,0,0,0,6.5
223,2024-04-22T03:42:00,2,東南東,3.9,東,15.4,95,0,0,0,6.5
224,2024-04-22T03:43:00,2.1,東南東,3.9,東,15.4,95,0,0,0,6.5
225,2024-04-22T03:44:00,2.2,東南東,3.9,東,15.4,94.8,0,0,0,6.5
226,2024-04-22T03:45:00,2.2,東南東,3.4,東南東,15.4,95,0,0,0,6.5
227,2024-04-22T03:46:00,2.2,東南東,3.4,東南東,15.4,95.1,0,0,0,6.5
228,2024-04-22T03:47:00,2.1,東南東,3.4,東南東,15.4,95.2,0,0,0,6.5
229,2024-04-22T03:48:00,2,東南東,3.4,東南東,15.4,95.3,0,0,0,6.5
230,2024-04-22T03:49:00,2.1,東南東,3.7,東,15.4,95.3,0,0,0,6.5
231,2024-04-22T03:50:00,2.1,東南東,3.8,東,15.4,95,0,0,0,6.5
232,2024-04-22T03:51:00,2.1,東,3.8,東,15.3,94.9,0,0,0,6.5
233,2024-04-22T03:52:00,2.1,東,3.8,東,15.4,94.9,0,0,0,6.5
234,2024-04-22T03:53:00,2.1,東,3.8,東,15.4,94.7,0,0,0,6.5
235,2024-04-22T03:54:00,2.1,東,3.8,東,15.4,94.7,0,0,0,6.5
236,2024-04-22T03:55:00,2,東,3.8,東,15.4,94.7,0,0,0,6.5
237,2024-04-22T03:56:00,2,東,3.8,東,15.4,94.6,0,0,0,6.5
238,2024-04-22T03:57:00,2,東,3.8,東,15.4,94.4,0,0,0,6.5
239,2024-04-22T03:58:00,2,東,3.8,東,15.4,94.5,0,0,0,6.5
240,2024-04-22T03:59:00,1.9,東,3.8,東,15.4,94.6,0,0,0,6.5
241,2024-04-22T04:00:00,1.7,東,3,東北東,15.4,94.7,0,0,0,6.5
242,2024-04-22T04:01:00,1.6,東,2.9,東北東,15.4,94.9,0,0,0,6.5
243,2024-04-22T04:02:00,1.5,東,2.7,東南東,15.4,94.9,0,0,0,6.5
244,2024-04-22T04:03:00,1.3,東,2.7,東南東,15.4,95,0,0,0,6.5
245,2024-04-22T04:04:00,1.3,東,2.7,東南東,15.4,95.1,0,0,0,6.5
246,2024-04-22T04:05:00,1.4,東,2.7,東南東,15.4,95.1,0,0,0,6.5
247,2024-04-22T04:06:00,1.4,東,2.7,東南東,15.4,94.8,0,0,0,6.5
248,2024-04-22T04:07:00,1.4,東,2.4,東,15.4,94.6,0,0,0,6.5
249,2024-04-22T04:08:00,1.2,東,2.4,東,15.4,94.7,0,0,0,6.5
250,2024-04-22T04:09:00,1.2,東,2.4,東,15.4,94.8,0,0,0,6.5
251,2024-04-22T04:10:00,1.2,東南東,2.4,東,15.4,94.9,0,0,0,6.5
252,2024-04-22T04:11:00,1.1,東南東,2.4,東,15.7,95.3,0,0,0,6.5
253,2024-04-22T04:12:00,1.2,東南東,2.5,東南東,15.6,94.8,0,0,0,6.5
254,2024-04-22T04:13:00,1.3,東南東,4.1,東北東,15.5,94,0,0,0,6.5
255,2024-04-22T04:14:00,1.4,東,4.1,東北東,15.4,93.9,0,0,0,6.5
256,2024-04-22T04:15:00,1.4,東,4.1,東北東,15.4,94,0,0,0,6.5
257,2024-04-22T04:16:00,1.4,東,4.1,東北東,15.4,94,0,0,0,6.5
258,2024-04-22T04:17:00,1.5,東,4.1,東北東,15.4,94,0,0,0,6.5
259,2024-04-22T04:18:00,1.6,東,4.1,東北東,15.4,94.1,0,0,0,6.5
260,2024-04-22T04:19:00,1.8,東,4.1,東北東,15.4,94.2,0,0,0,6.5
261,2024-04-22T04:20:00,1.9,東,4.1,東北東,15.3,94.3,0,0,0,6.5
262,2024-04-22T04:21:00,2.2,東北東,4.4,北東,15.4,94.4,0,0,0,6.5
263,2024-04-22T04:22:00,2.2,東北東,4.4,北東,15.4,94.4,0,0,0,6.5
264,2024-04-22T04:23:00,2.1,東北東,4.4,北東,15.4,94.4,0,0,0,6.5
265,2024-04-22T04:24:00,2.1,東北東,4.4,北東,15.4,94.4,0,0,0,6.5
266,2024-04-22T04:25:00,2.1,東北東,4.4,北東,15.4,94.3,0,0,0,6.5
267,2024-04-22T04:26:00,2.1,東北東,4.4,北東,15.4,94.2,0,0,0,6.5
268,2024-04-22T04:27:00,2,東北東,4.4,北東,15.4,94.3,0,0,0,6.5
269,2024-04-22T04:28:00,2.1,東北東,4.4,北東,15.4,94.3,0,0,0,6.5
270,2024-04-22T04:29:00,2.2,東北東,4.4,北東,15.4,94.2,0,0,0,6.5
271,2024-04-22T04:30:00,2.2,東,4.4,北東,15.4,94.1,0,0,0,6.5
272,2024-04-22T04:31:00,2.2,東,3.8,東南東,15.4,94.1,0,0,0,6.5
273,2024-04-22T04:32:00,2.2,東,3.8,東南東,15.4,94,0,0,0,6.5
274,2024-04-22T04:33:00,2.3,東,3.8,東南東,15.4,94,0,0,0,6.5
275,2024-04-22T04:34:00,2.3,東,3.8,東南東,15.4,94.1,0,0,0,6.5
276,2024-04-22T04:35:00,2.2,東,3.8,東南東,15.4,94.2,0,0,0,6.5
277,2024-04-22T04:36:00,2.2,東,3.8,東南東,15.4,94.4,0,0,0,6.5
278,2024-04-22T04:37:00,2.1,東,3.8,東南東,15.4,94.6,0,0,0,6.5
279,2024-04-22T04:38:00,1.9,東,3.7,東南東,15.4,94.7,0,0,0,6.5
280,2024-04-22T04:39:00,1.8,東,3.5,東,15.4,94.7,0,0,0,6.5
281,2024-04-22T04:40:00,1.7,東,3.4,東北東,15.4,94.5,0,0,0,6.5
282,2024-04-22T04:41:00,1.7,東,3.4,東北東,15.4,94.3,0,0,0,6.5
283,2024-04-22T04:42:00,1.6,東,3.3,東,15.4,94.3,0,0,0,6.5
284,2024-04-22T04:43:00,1.6,東,3.9,東,15.4,94.2,0,0,0,6.5
285,2024-04-22T04:44:00,1.5,東,3.9,東,15.4,94.1,0,0,0,6.5
286,2024-04-22T04:45:00,1.5,東,3.9,東,15.5,94.4,0,0,0,6.5
287,2024-04-22T04:46:00,1.6,東南東,3.9,東,15.5,94.5,0,0,0,6.5
288,2024-04-22T04:47:00,1.6,東南東,3.9,東,15.4,94.6,0,0,0,6.5
289,2024-04-22T04:48:00,,"",,"",,,,,,
290,2024-04-22T04:49:00,1.7,東南東,3.9,東,15.4,95,0,0,0,6.5
291,2024-04-22T04:50:00,1.7,東南東,3.9,東,15.4,94.8,0,0,0,6.5
292,2024-04-22T04:51:00,1.8,東南東,3.9,東,15.4,94.6,0,0,0,6.5
293,2024-04-22T04:52:00,1.8,東南東,3.9,東,15.4,94.3,0,0,0,6.5
294,2024-04-22T04:53:00,1.8,東南東,3.7,東南東,15.4,94.1,0,0,0,6.5
295,2024-04-22T04:54:00,1.9,東南東,3.7,東南東,15.4,94.4,0,0,0,6.5
296,2024-04-22T04:55:00,1.9,東南東,3.7,東南東,15.4,94.8,0,0,0,6.5
297,2024-04-22T04:56:00,1.9,東南東,3.7,東南東,15.4,95,0,0,0,6.5
298,2024-04-22T04:57:00,2.1,東南東,3.7,東南東,15.4,94.7,0,0,0,6.5
299,2024-04-22T04:58:00,2,東南東,3.7,東南東,15.4,94.1,0,0,0,6.5
300,2024-04-22T04:59:00,2,東南東,3.7,東南東,15.4,93.7,0,0,0,6.5
301,2024-04-22T05:00:00,2.1,東南東,3.7,東南東,15.4,93.8,0,0,0,6.5
302,2024-04-22T05:01:00,2.1,東南東,3.6,東南東,15.5,93.8,0,0,0,6.5
303,2024-04-22T05:02:00,2,東南東,3.6,東南東,15.5,93.5,0,0,0,6.5
304,2024-04-22T05:03:00,2,東南東,3.6,東南東,15.5,93.7,0,0,0,6.5
305,2024-04-22T05:04:00,2,東南東,3.6,東南東,15.4,93.8,0,0,0,6.5
306,2024-04-22T05:05:00,2.1,東南東,3.6,東南東,15.4,93.7,0,0,0,6.5
307,2024-04-22T05:06:00,2.1,東南東,3.6,東南東,15.4,93.8,0,0,0,6.5
308,2024-04-22T05:07:00,2.1,東南東,3.5,東南東,15.4,93.8,0,0,0,6.5
309,2024-04-22T05:08:00,2.1,東南東,3.5,東南東,15.4,93.9,0,0,0,6.5
310,2024-04-22T05:09:00,2.1,東南東,3.5,東南東,15.4,93.8,0,0,0,6.5
311,2024-04-22T05:10:00,2.1,東南東,4,東,15.5,93.8,0,0,0,6.5
312,2024-04-22T05:11:00,2.2,東南東,4,東,15.4,93.9,0,0,0,6.5
313,2024-04-22T05:12:00,2.3,東南東,4,東,15.4,93.7,0,0,0,6.5
314,2024-04-22T05:13:00,2.3,東南東,4,東,15.4,93.7,0,0,0,6.5
315,2024-04-22T05:14:00,2.3,東,4,東,15.4,93.7,0,0,0,6.5
316,2024-04-22T05:15:00,2.3,東,4,東,15.4,93.7,0,0,0,6.5
317,2024-04-22T05:16:00,2.3,東,4,東,15.4,93.5,0,0,0,6.5
318,2024-04-22T05:17:00,2.3,東,4,東,15.4,93.5,0,0,0,6.5
319,2024-04-22T05:18:00,2.2,東,4,東,15.4,93.5,0,0,0,6.5
320,2024-04-22T05:19:00,2.2,東,4,東,15.4,93.7,0,0,0,6.5
321,2024-04-22T05:20:00,2,東,3.8,東,15.4,93.7,0,0,0,6.5
322,2024-04-22T05:21:00,1.9,東,3.8,東,15.4,93.9,0,0,0,6.5
323,2024-04-22T05:22:00,1.8,東,3,東南東,15.3,94,0,0,0,6.5
324,2024-04-22T05:23:00,1.7,東,3,東南東,15.3,94.3,0,0,0,6.5
325,2024-04-22T05:24:00,1.7,東,3,東南東,15.3,94.4,0,0,0,6.5
326,2024-04-22T05:25:00,1.5,東北東,3,東南東,15.3,94.7,0,0,0,6.5
327,2024-04-22T05:26:00,1.4,東北東,2.3,東北東,15.3,95,0,0,0,6.5
328,2024-04-22T05:27:00,1.4,東北東,2.1,北東,15.3,95.1,0,0,0,6.5
329,2024-04-22T05:28:00,1.3,東北東,2.1,北東,15.3,95.2,0,0,0,6.5
330,2024-04-22T05:29:00,1.2,東北東,2.1,北東,15.3,95.4,0,0,0,6.5
331,2024-04-22T05:30:00,1.2,東北東,2.1,北東,15.3,95.4,0,0,0,6.5
332,2024-04-22T05:31:00,1.1,東北東,2.1,北東,15.3,95.5,0,0,0,6.5
333,2024-04-22T05:32:00,1,東北東,2.1,北東,15.2,95.5,0,0,0,6.5
334,2024-04-22T05:33:00,1,東北東,2.1,北東,15.2,95.6,0,0,0,6.5
335,2024-04-22T05:34:00,1,東北東,2.1,北東,15.2,95.6,0,0,0,6.5
336,2024-04-22T05:35:00,1,北東,2.1,北東,15.2,95.6,0,0,0,6.5
337,2024-04-22T05:36:00,1.1,北東,2.1,北東,15.2,95.6,0,0,0,6.5
338,2024-04-22T05:37:00,1.1,北東,2.1,北東,15.2,95.6,0,0,0,6.5
339,2024-04-22T05:38:00,1.1,北東,2.1,北東,15.2,95.6,0,0,0,6.5
340,2024-04-22T05:39:00,1.2,北東,2.1,北東,15.2,95.6,0,0,0,6.5
341,2024-04-22T05:40:00,1.2,北東,2.1,北東,15.2,95.6,0,0,0,6.5
342,2024-04-22T05:41:00,1.2,北東,2.1,北東,15.2,95.6,0,0,0,6.5
343,2024-04-22T05:42:00,1.2,北東,2.1,北東,15.2,95.7,0,0,0,6.5
344,2024-04-22T05:43:00,1.2,北東,2.1,北東,15.2,95.7,0,0,0,6.5
345,2024-04-22T05:44:00,1.1,北東,2,北東,15.2,95.7,0,0,0,6.5
346,2024-04-22T05:45:00,1,東北東,1.9,東北東,15.3,95.7,0,0,0,6.5
347,2024-04-22T05:46:00,0.9,東北東,1.9,東北東,15.3,95.7,0,0,0,6.5
348,2024-04-22T05:47:00,0.9,東北東,1.9,東北東,15.2,95.8,0,0,0,6.5
349,2024-04-22T05:48:00,0.8,東,1.9,東北東,15.3,95.9,0,0,0,6.5
350,2024-04-22T05:49:00,0.7,東,1.4,東北東,15.2,95.9,0,0,0,6.5
351,2024-04-22T05:50:00,0.7,東,1.4,東北東,15.2,95.8,0,0,0,6.5
352,2024-04-22T05:51:00,0.8,東,2,東,15.2,95.7,0,0,0,6.5
353,2024-04-22T05:52:00,0.8,東,2,東,15.3,95.7,0,0,0,6.5
354,2024-04-22T05:53:00,0.9,東,2,東,15.3,95.5,0,0,0,6.5
355,2024-04-22T05:54:00,1,東,2.9,東北東,15.3,95.3,0,0,0,6.5
356,2024-04-22T05:55:00,1.1,東,2.9,東北東,15.3,95,0,0,0,6.5
357,2024-04-22T05:56:00,1.3,東北東,2.9,東北東,15.3,94.6,0,0,0,6.5
358,2024-04-22T05:57:00,1.3,東北東,2.9,東北東,15.3,94.3,0,0,0,6.5
359,2024-04-22T05:58:00,1.4,東北東,2.9,東北東,15.3,94.2,0,0,0,6.5
360,2024-04-22T05:59:00,1.5,東北東,2.9,東北東,15.3,93.9,0,0,0,6.5
361,2024-04-22T06:00:00,1.6,東北東,2.9,東北東,15.4,93.8,0,0,0,6.5
362,2024-04-22T06:01:00,1.5,東北東,2.9,東北東,15.4,93.5,0,0,0,6.5
363,2024-04-22T06:02:00,1.5,東北東,2.9,東北東,15.4,93.6,0,0,0,6.5
364,2024-04-22T06:03:00,1.5,東北東,2.9,東北東,15.4,93.6,0,0,0,6.5
365,2024-04-22T06:04:00,1.5,東北東,2.9,東北東,15.4,93.7,0,0,0,6.5
366,2024-04-22T06:05:00,1.4,東,2.9,東北東,15.4,93.8,0,0,0,6.5
367,2024-04-22T06:06:00,1.2,東,2.9,東北東,15.4,93.8,0,0,0,6.5
368,2024-04-22T06:07:00,1.2,東,2.9,東北東,15.4,93.9,0,0,0,6.5
369,2024-04-22T06:08:00,1.3,東,2.9,東北東,15.4,94.1,0,0,0,6.5
370,2024-04-22T06:09:00,1.3,東,2.9,東北東,15.4,94.1,0,0,0,6.5
371,2024-04-22T06:10:00,1.2,東,2.6,東,15.4,93.7,0.5,0.5,0.5,7
372,2024-04-22T06:11:00,1.3,東,2.6,東,15.4,93.6,0.5,0.5,0.5,7
373,2024-04-22T06:12:00,1.3,東,2.6,東,15.4,93.6,0.5,0.5,0.5,7
374,2024-04-22T06:13:00,1.4,東,2.7,東北東,15.4,93.6,0.5,0.5,0.5,7
375,2024-04-22T06:14:00,1.4,東,2.7,東北東,15.4,93.4,0.5,0.5,0.5,7
376,2024-04-22T06:15:00,1.4,東,2.7,東北東,15.4,93.4,0.5,0.5,0.5,7
377,2024-04-22T06:16:00,1.5,東,2.7,東北東,15.4,93.6,0.5,0.5,0.5,7
378,2024-04-22T06:17:00,1.7,東,2.7,東北東,15.4,93.6,0.5,0.5,0.5,7
379,2024-04-22T06:18:00,1.7,東,2.7,東北東,15.4,93.7,0.5,0.5,0.5,7
380,2024-04-22T06:19:00,1.6,東,2.7,東北東,15.4,93.8,0.5,0.5,0.5,7
381,2024-04-22T06:20:00,1.6,東北東,2.7,東北東,15.4,93.9,0,0.5,0.5,7
382,2024-04-22T06:21:00,1.6,東北東,2.7,東北東,15.5,94,0,0.5,0.5,7
383,2024-04-22T06:22:00,1.5,東北東,2.7,東北東,15.4,94,0,0.5,0.5,7
384,2024-04-22T06:23:00,1.5,東北東,2.6,東北東,15.4,94,0,0.5,0.5,7
385,2024-04-22T06:24:00,1.6,東北東,2.9,東北東,15.4,93.9,0,0.5,0.5,7
386,2024-04-22T06:25:00,1.5,東北東,2.9,東北東,15.4,93.8,0,0.5,0.5,7
387,2024-04-22T06:26:00,1.5,東北東,2.9,東北東,15.4,94,0,0.5,0.5,7
388,2024-04-22T06:27:00,1.5,東北東,2.9,東北東,15.5,93.8,0,0.5,0.5,7
389,2024-04-22T06:28:00,1.5,東北東,3.9,東南東,15.4,93.6,0,0.5,0.5,7
390,2024-04-22T06:29:00,1.7,東北東,4.1,東,15.4,93.3,0,0.5,0.5,7
391,2024-04-22T06:30:00,1.8,東,4.1,東,15.4,93,0,0.5,0.5,7
392,2024-04-22T06:31:00,1.9,東,4.1,東,15.4,92.9,0,0.5,0.5,7
393,2024-04-22T06:32:00,2.1,東,4.1,東,15.5,92.9,0,0.5,0.5,7
394,2024-04-22T06:33:00,2.1,東,4.1,東,15.5,92.8,0,0.5,0.5,7
395,2024-04-22T06:34:00,2.1,東,4.1,東,15.5,92.7,0,0.5,0.5,7
396,2024-04-22T06:35:00,2.2,東,4.1,東,15.5,92.7,0,0.5,0.5,7
397,2024-04-22T06:36:00,2.2,東,4.1,東,15.6,92.8,0,0.5,0.5,7
398,2024-04-22T06:37:00,2.2,東,4.1,東,15.6,92.7,0,0.5,0.5,7
399,2024-04-22T06:38:00,2.1,東,4.1,東,15.6,92.3,0,0.5,0.5,7
400,2024-04-22T06:39:00,2,東,3.5,東南東,15.6,92.3,0,0.5,0.5,7
401,2024-04-22T06:40:00,1.9,東,3.5,東南東,15.6,91.9,0,0.5,0.5,7
402,2024-04-22T06:41:00,1.8,東,3.5,東南東,15.6,91.9,0,0.5,0.5,7
403,2024-04-22T06:42:00,1.8,東,3.3,東,15.6,91.7,0,0.5,0.5,7
404,2024-04-22T06:43:00,1.8,東,2.9,東,15.6,91.5,0,0.5,0.5,7
405,2024-04-22T06:44:00,1.8,東,3.2,東北東,15.6,91.6,0,0.5,0.5,7
406,2024-04-22T06:45:00,1.8,東,3.2,東北東,15.6,91.5,0,0.5,0.5,7
407,2024-04-22T06:46:00,1.9,東,3.2,東北東,15.6,91.5,0,0.5,0.5,7
408,2024-04-22T06:47:00,1.9,東,3.2,東北東,15.6,91.4,0,0.5,0.5,7
409,2024-04-22T06:48:00,1.9,東,3.2,東北東,15.6,91.4,0,0.5,0.5,7
410,2024-04-22T06:49:00,1.9,東,3.2,東北東,15.6,91.7,0,0.5,0.5,7
411,2024-04-22T06:50:00,1.9,東,3.2,東北東,15.6,91.9,0,0.5,0.5,7
412,2024-04-22T06:51:00,1.9,東,3.2,東北東,15.6,92,0,0.5,0.5,7
413,2024-04-22T06:52:00,1.8,東,3.2,東北東,15.6,91.9,0,0.5,0.5,7
414,2024-04-22T06:53:00,1.8,東北東,3.2,東北東,15.6,92.2,0,0.5,0.5,7
415,2024-04-22T06:54:00,1.7,東北東,2.7,東北東,15.6,92.3,0,0.5,0.5,7
416,2024-04-22T06:55:00,1.6,東,2.7,東北東,15.6,92.6,0,0.5,0.5,7